Location: *
(17.3280°S, 114.7300°W)
Time: 07:20:29
(UTC+00:00)

GPS 2-04 Rocket1 - Pass Details

Date: 05 August 2020
Orbit: 417 x 548 km, 35.6° (Epoch: 21 September)

Event Time Altitude Azimuth Distance (km) Brightness Sun altitude
Exits shadow 13:04:36 25° 237° (WSW) 970 3.5 -14.2°
Maximum altitude 13:06:38 89° 316° (NW) 471 2.4 -13.8°
Drops below altitude 10° 13:10:26 10° 56° (NE) 1,654 6.5 -12.9°
Sets 13:12:40 0° 56° (NE) 2,556 7.7 -12.4°
